EZY74W EGCC-EGKK

Flight info

Callsign EZY74W
Flight time 0h 41m
Altitude 19000
Route LISTO2S LISTO L612 HON N859 KIDLI KIDLI1G
Aircraft A20N/M-SDE2E3FGHIRWXY/LB1

Departure

Time 2026-05-06 15:46
Airport Manchester Airport (EGCC)

Arrival

Time 2026-05-06 16:28
Airport London Gatwick Airport (EGKK)
Time Latitude Longitude Altitude Speed Heading
2026-05-06 15:22 53.36002 -2.27127 246 ft 0 kts 90°
2026-05-06 15:38 53.36002 -2.27146 246 ft 2 kts 90°
2026-05-06 15:38 53.36002 -2.27173 246 ft 2 kts 90°
2026-05-06 15:39 53.36002 -2.27202 246 ft 2 kts 92°
2026-05-06 15:39 53.36004 -2.27229 245 ft 2 kts 110°
2026-05-06 15:39 53.36011 -2.27244 245 ft 0 kts 193°
2026-05-06 15:39 53.36012 -2.27244 245 ft 0 kts 190°
2026-05-06 15:40 53.36014 -2.27243 245 ft 0 kts 183°
2026-05-06 15:41 53.36012 -2.27243 245 ft 1 kts 183°
2026-05-06 15:41 53.35982 -2.27242 245 ft 7 kts 179°
2026-05-06 15:41 53.35913 -2.27233 245 ft 10 kts 172°
2026-05-06 15:42 53.35830 -2.27243 244 ft 14 kts 222°
2026-05-06 15:42 53.35757 -2.27384 242 ft 18 kts 231°
2026-05-06 15:42 53.35695 -2.27515 241 ft 12 kts 231°
2026-05-06 15:42 53.35629 -2.27643 239 ft 16 kts 224°
2026-05-06 15:43 53.35539 -2.27789 238 ft 20 kts 224°
2026-05-06 15:43 53.35449 -2.27931 237 ft 18 kts 224°
2026-05-06 15:43 53.35349 -2.28094 233 ft 22 kts 224°
2026-05-06 15:43 53.35237 -2.28289 231 ft 25 kts 230°
2026-05-06 15:44 53.35139 -2.28492 228 ft 20 kts 231°
2026-05-06 15:44 53.35046 -2.28686 226 ft 19 kts 230°
2026-05-06 15:44 53.34950 -2.28720 225 ft 16 kts 130°
2026-05-06 15:44 53.34950 -2.28586 225 ft 11 kts 82°
2026-05-06 15:45 53.34966 -2.28446 228 ft 15 kts 73°
2026-05-06 15:45 53.35014 -2.28248 230 ft 22 kts 58°
2026-05-06 15:45 53.35133 -2.27993 233 ft 41 kts 51°
2026-05-06 15:45 53.35452 -2.27333 242 ft 103 kts 50°
2026-05-06 15:46 53.36003 -2.26169 308 ft 147 kts 52°
2026-05-06 15:46 53.36651 -2.24787 825 ft 150 kts 52°
2026-05-06 15:46 53.37302 -2.23419 1559 ft 150 kts 54°
2026-05-06 15:46 53.37597 -2.21778 2171 ft 155 kts 98°
2026-05-06 15:47 53.37058 -2.20092 2588 ft 175 kts 135°
2026-05-06 15:47 53.36022 -2.18850 2996 ft 195 kts 148°
2026-05-06 15:47 53.34739 -2.17733 3405 ft 220 kts 158°
2026-05-06 15:47 53.33161 -2.17195 3986 ft 244 kts 175°
2026-05-06 15:48 53.31396 -2.17174 4618 ft 262 kts 182°
2026-05-06 15:48 53.29549 -2.17412 4923 ft 267 kts 185°
2026-05-06 15:48 53.27695 -2.17742 4998 ft 268 kts 186°
2026-05-06 15:48 53.25837 -2.18082 5019 ft 268 kts 185°
2026-05-06 15:49 53.23972 -2.18408 5003 ft 268 kts 185°
2026-05-06 15:49 53.22123 -2.18713 5017 ft 269 kts 185°
2026-05-06 15:49 53.20263 -2.19010 5002 ft 268 kts 185°
2026-05-06 15:49 53.18399 -2.19300 5000 ft 269 kts 184°
2026-05-06 15:50 53.16534 -2.19588 5003 ft 269 kts 184°
2026-05-06 15:50 53.14663 -2.19676 5000 ft 269 kts 173°
2026-05-06 15:50 53.12844 -2.18913 5268 ft 271 kts 156°
2026-05-06 15:50 53.11102 -2.17658 6127 ft 274 kts 156°
2026-05-06 15:51 53.09340 -2.16424 7104 ft 278 kts 157°
2026-05-06 15:51 53.07531 -2.15175 8015 ft 283 kts 157°
2026-05-06 15:51 53.05696 -2.13910 8929 ft 288 kts 158°
2026-05-06 15:51 53.03825 -2.12622 9859 ft 294 kts 158°
2026-05-06 15:52 53.01906 -2.11299 10556 ft 307 kts 158°
2026-05-06 15:52 52.99858 -2.09890 10887 ft 330 kts 158°
2026-05-06 15:52 52.97670 -2.08386 11326 ft 347 kts 158°
2026-05-06 15:52 52.95426 -2.06842 12133 ft 352 kts 158°
2026-05-06 15:53 52.93147 -2.05275 12943 ft 357 kts 158°
2026-05-06 15:53 52.90838 -2.03691 13756 ft 362 kts 158°
2026-05-06 15:53 52.88499 -2.02087 14505 ft 365 kts 159°
2026-05-06 15:53 52.86139 -2.00471 15256 ft 369 kts 159°
2026-05-06 15:54 52.83756 -1.98841 15985 ft 372 kts 159°
2026-05-06 15:54 52.81421 -1.97246 16674 ft 376 kts 159°
2026-05-06 15:54 52.78993 -1.95590 17396 ft 380 kts 159°
2026-05-06 15:54 52.76537 -1.93916 18110 ft 383 kts 159°
2026-05-06 15:55 52.74057 -1.92229 18710 ft 387 kts 159°
2026-05-06 15:55 52.71561 -1.90532 18956 ft 389 kts 159°
2026-05-06 15:55 52.69057 -1.88832 19035 ft 389 kts 159°
2026-05-06 15:55 52.66554 -1.87135 19033 ft 389 kts 159°
2026-05-06 15:56 52.64050 -1.85440 19026 ft 389 kts 159°
2026-05-06 15:56 52.61547 -1.83747 19025 ft 389 kts 159°
2026-05-06 15:56 52.59039 -1.82053 19022 ft 388 kts 159°
2026-05-06 15:56 52.56507 -1.80344 19023 ft 389 kts 159°
2026-05-06 15:57 52.54008 -1.78661 19016 ft 389 kts 159°
2026-05-06 15:57 52.51504 -1.76976 19017 ft 389 kts 159°
2026-05-06 15:57 52.49003 -1.75295 19020 ft 389 kts 159°
2026-05-06 15:57 52.46502 -1.73616 19024 ft 388 kts 159°
2026-05-06 15:58 52.44009 -1.71944 19019 ft 388 kts 159°
2026-05-06 15:58 52.41501 -1.70264 19019 ft 389 kts 159°
2026-05-06 15:58 52.38998 -1.68591 19026 ft 388 kts 159°
2026-05-06 15:58 52.36491 -1.66916 19027 ft 389 kts 159°
2026-05-06 15:59 52.33942 -1.65455 19020 ft 388 kts 164°
2026-05-06 15:59 52.31374 -1.64124 19015 ft 388 kts 164°
2026-05-06 15:59 52.28807 -1.62786 19013 ft 388 kts 164°
2026-05-06 15:59 52.26236 -1.61444 19009 ft 387 kts 164°
2026-05-06 16:00 52.23671 -1.60106 19010 ft 387 kts 164°
2026-05-06 16:00 52.21104 -1.58770 19015 ft 387 kts 164°
2026-05-06 16:00 52.18535 -1.57434 19013 ft 387 kts 164°
2026-05-06 16:00 52.15971 -1.56103 19009 ft 387 kts 164°
2026-05-06 16:01 52.13407 -1.54774 19010 ft 387 kts 164°
2026-05-06 16:01 52.10841 -1.53445 19016 ft 387 kts 164°
2026-05-06 16:01 52.08273 -1.52117 19014 ft 387 kts 164°
2026-05-06 16:01 52.05706 -1.50790 19008 ft 387 kts 164°
2026-05-06 16:02 52.04008 -1.49914 18986 ft 386 kts 164°
2026-05-06 16:02 52.01426 -1.48582 18775 ft 387 kts 164°
2026-05-06 16:02 51.98849 -1.47255 18516 ft 385 kts 164°
2026-05-06 16:02 51.96467 -1.46029 18294 ft 383 kts 164°
2026-05-06 16:03 51.93922 -1.44722 18016 ft 382 kts 164°
2026-05-06 16:03 51.91329 -1.43391 17728 ft 380 kts 164°
2026-05-06 16:03 51.88871 -1.42132 17419 ft 380 kts 164°
2026-05-06 16:03 51.86351 -1.40842 16926 ft 380 kts 164°
2026-05-06 16:04 51.83804 -1.39540 16386 ft 377 kts 164°
2026-05-06 16:04 51.81315 -1.38269 15869 ft 374 kts 164°
2026-05-06 16:04 51.78932 -1.37045 15363 ft 371 kts 162°
2026-05-06 16:04 51.76577 -1.35428 15080 ft 364 kts 153°
2026-05-06 16:05 51.74391 -1.33293 14999 ft 370 kts 147°
2026-05-06 16:05 51.72233 -1.31022 14995 ft 370 kts 148°
2026-05-06 16:05 51.70077 -1.28767 14992 ft 370 kts 148°
2026-05-06 16:05 51.67916 -1.26516 14990 ft 370 kts 148°
2026-05-06 16:06 51.65758 -1.24272 14991 ft 370 kts 148°
2026-05-06 16:06 51.63594 -1.22025 14990 ft 370 kts 148°
2026-05-06 16:06 51.61430 -1.19780 14983 ft 370 kts 148°
2026-05-06 16:06 51.59270 -1.17541 14719 ft 370 kts 148°
2026-05-06 16:07 51.57095 -1.15290 14129 ft 373 kts 148°
2026-05-06 16:07 51.54865 -1.12985 13266 ft 380 kts 148°
2026-05-06 16:07 51.54144 -1.12240 12996 ft 381 kts 148°
2026-05-06 16:08 51.53326 -1.11395 12772 ft 380 kts 148°
2026-05-06 16:08 51.51151 -1.09149 12521 ft 368 kts 148°
2026-05-06 16:08 51.49124 -1.07058 12404 ft 347 kts 148°
2026-05-06 16:08 51.47048 -1.04920 12253 ft 359 kts 148°
2026-05-06 16:09 51.44947 -1.02759 12044 ft 357 kts 147°
2026-05-06 16:09 51.42866 -1.00620 11860 ft 354 kts 148°
2026-05-06 16:09 51.40794 -0.98492 11658 ft 354 kts 148°
2026-05-06 16:09 51.38723 -0.96368 11482 ft 353 kts 148°
2026-05-06 16:10 51.36655 -0.94249 11293 ft 352 kts 148°
2026-05-06 16:10 51.34593 -0.92139 11110 ft 351 kts 148°
2026-05-06 16:10 51.32541 -0.90040 10995 ft 350 kts 148°
2026-05-06 16:10 51.31183 -0.88652 10980 ft 350 kts 148°
2026-05-06 16:11 51.28973 -0.86398 10766 ft 349 kts 148°
2026-05-06 16:11 51.26926 -0.84313 10430 ft 346 kts 147°
2026-05-06 16:11 51.24931 -0.82283 10306 ft 334 kts 147°
2026-05-06 16:12 51.23014 -0.80334 10180 ft 320 kts 147°
2026-05-06 16:12 51.21154 -0.78444 9891 ft 307 kts 147°
2026-05-06 16:12 51.19368 -0.76631 9380 ft 301 kts 147°
2026-05-06 16:12 51.17655 -0.74895 9200 ft 292 kts 147°
2026-05-06 16:13 51.15922 -0.73140 9122 ft 297 kts 147°
2026-05-06 16:13 51.14181 -0.71378 9041 ft 296 kts 147°
2026-05-06 16:13 51.12452 -0.69626 8989 ft 294 kts 147°
2026-05-06 16:13 51.10717 -0.67872 8988 ft 296 kts 147°
2026-05-06 16:14 51.08901 -0.66040 8985 ft 296 kts 147°
2026-05-06 16:14 51.07218 -0.64343 8987 ft 296 kts 147°
2026-05-06 16:15 51.06142 -0.63112 8980 ft 295 kts 138°
2026-05-06 16:15 51.04815 -0.60634 8982 ft 293 kts 120°
2026-05-06 16:15 51.03887 -0.57735 8982 ft 294 kts 114°
2026-05-06 16:15 51.02993 -0.54839 8970 ft 292 kts 115°
2026-05-06 16:16 51.02080 -0.51907 8971 ft 293 kts 115°
2026-05-06 16:16 51.01170 -0.49001 8967 ft 293 kts 115°
2026-05-06 16:16 51.00262 -0.46106 8967 ft 293 kts 115°
2026-05-06 16:16 50.99356 -0.43229 8967 ft 292 kts 115°
2026-05-06 16:17 50.98509 -0.40538 8967 ft 292 kts 115°
2026-05-06 16:17 50.97621 -0.37726 8957 ft 293 kts 115°
2026-05-06 16:17 50.96713 -0.34847 8757 ft 292 kts 115°
2026-05-06 16:17 50.95816 -0.31944 8364 ft 292 kts 110°
2026-05-06 16:18 50.95483 -0.28935 8212 ft 272 kts 84°
2026-05-06 16:18 50.95940 -0.26123 7994 ft 252 kts 60°
2026-05-06 16:18 50.96876 -0.23867 7649 ft 246 kts 42°
2026-05-06 16:18 50.98357 -0.22505 7289 ft 240 kts 11°
2026-05-06 16:19 50.99988 -0.22572 6984 ft 236 kts 341°
2026-05-06 16:19 51.01344 -0.23981 6638 ft 236 kts 310°
2026-05-06 16:19 51.02028 -0.26318 6294 ft 239 kts 279°
2026-05-06 16:19 51.01884 -0.28946 5935 ft 242 kts 257°
2026-05-06 16:20 51.01486 -0.31544 5589 ft 241 kts 262°
2026-05-06 16:20 51.01325 -0.34179 5265 ft 240 kts 272°
2026-05-06 16:20 51.01412 -0.36815 4953 ft 238 kts 280°
2026-05-06 16:20 51.01699 -0.39381 4579 ft 235 kts 284°
2026-05-06 16:21 51.02077 -0.41901 4096 ft 235 kts 287°
2026-05-06 16:21 51.02490 -0.44405 3670 ft 234 kts 287°
2026-05-06 16:21 51.02904 -0.46893 3334 ft 233 kts 287°
2026-05-06 16:21 51.03310 -0.49384 3235 ft 225 kts 287°
2026-05-06 16:22 51.03819 -0.51678 3066 ft 217 kts 307°
2026-05-06 16:22 51.04946 -0.53155 3007 ft 217 kts 341°
2026-05-06 16:22 51.06422 -0.53347 2987 ft 213 kts 14°
2026-05-06 16:22 51.07740 -0.52466 2987 ft 215 kts 28°
2026-05-06 16:23 51.08988 -0.51177 2993 ft 213 kts 38°
2026-05-06 16:23 51.10003 -0.49441 2988 ft 215 kts 54°
2026-05-06 16:23 51.10713 -0.47337 2995 ft 216 kts 66°
2026-05-06 16:23 51.11199 -0.45066 2997 ft 216 kts 72°
2026-05-06 16:24 51.11560 -0.42760 2966 ft 211 kts 75°
2026-05-06 16:24 51.11864 -0.40542 2801 ft 193 kts 75°
2026-05-06 16:24 51.12153 -0.38449 2574 ft 196 kts 75°
2026-05-06 16:24 51.12436 -0.36382 2343 ft 182 kts 75°
2026-05-06 16:25 51.12691 -0.34522 2073 ft 167 kts 75°
2026-05-06 16:25 51.12932 -0.32785 1844 ft 151 kts 75°
2026-05-06 16:25 51.13156 -0.31163 1669 ft 150 kts 74°
2026-05-06 16:25 51.13367 -0.29600 1462 ft 140 kts 76°
2026-05-06 16:26 51.13504 -0.28603 1335 ft 133 kts 75°
2026-05-06 16:26 51.13695 -0.27212 1134 ft 127 kts 74°
2026-05-06 16:26 51.13888 -0.25814 946 ft 131 kts 74°
2026-05-06 16:26 51.14081 -0.24403 744 ft 125 kts 74°
2026-05-06 16:27 51.14268 -0.23042 583 ft 128 kts 73°
2026-05-06 16:27 51.14459 -0.21671 367 ft 126 kts 74°
2026-05-06 16:27 51.14637 -0.20309 231 ft 126 kts 75°
2026-05-06 16:27 51.14806 -0.19086 211 ft 82 kts 73°
2026-05-06 16:28 51.14922 -0.18558 207 ft 32 kts 53°
2026-05-06 16:28 51.15054 -0.18296 215 ft 25 kts 51°
2026-05-06 16:28 51.15100 -0.18206 205 ft 8 kts 47°
2026-05-06 16:28 51.15163 -0.18206 212 ft 11 kts 344°
2026-05-06 16:29 51.15249 -0.18235 215 ft 14 kts 348°
2026-05-06 16:29 51.15273 -0.18243 204 ft 0 kts 348°
2026-05-06 16:29 51.15276 -0.18244 208 ft 2 kts 348°
2026-05-06 16:30 51.15303 -0.18252 214 ft 6 kts 348°
2026-05-06 16:30 51.15334 -0.18262 209 ft 8 kts 348°
2026-05-06 16:30 51.15421 -0.18291 207 ft 12 kts 348°
2026-05-06 16:30 51.15509 -0.18323 212 ft 14 kts 347°
2026-05-06 16:31 51.15610 -0.18357 211 ft 13 kts 354°
2026-05-06 16:31 51.15659 -0.18259 204 ft 14 kts 78°
2026-05-06 16:31 51.15682 -0.18092 210 ft 17 kts 77°
2026-05-06 16:31 51.15725 -0.18045 211 ft 7 kts 351°
2026-05-06 16:32 51.15785 -0.18060 208 ft 9 kts
2026-05-06 16:32 51.15813 -0.17981 206 ft 6 kts 78°
2026-05-06 16:32 51.15817 -0.17955 204 ft 1 kts 78°
2026-05-06 16:32 51.15817 -0.17954 204 ft 0 kts 78°